Weather History for Norfolk Hampton Roads Executi, VA

Change the Weather History Date:

Friday, March 28, 2014

  Actual Average (KNGU) Record (KNGU)
Temperature  
Mean Temperature 56 °F -  
Max Temperature 71 °F 61 °F 82 °F (2008)
Min Temperature 41 °F 44 °F 32 °F (2005)
Degree Days  
Heating Degree Days 9    
Growing Degree Days 6 (Base 50)    
Moisture  
Dew Point 47 °F    
Average Humidity 68    
Maximum Humidity 88    
Minimum Humidity 43    
Precipitation  
Precipitation 0.00 in - - ()
Sea Level Pressure  
Sea Level Pressure 30.22 in    
Wind  
Wind Speed 10 mph (SSW)    
Max Wind Speed 22 mph    
Max Gust Speed 33 mph    
Visibility 10 miles    
Events      
Averages and records for this station are not official NWS values.
T = Trace of Precipitation, MM = Missing Value Source: NWS Daily Summary

Daily Weather History Graph

Daily Weather History Graph

Search for Another Location

Airport:

Trip Planner

Search our weather history database for the weather conditions in past years. The results will help you decide how hot, cold, wet, or windy it might be!

Date:

Astronomy

Mar. 28, 2014 Rise Set
Actual Time 6:57 AM EDT 7:24 PM EDT
Civil Twilight 6:31 AM EDT 7:50 PM EDT
Nautical Twilight 6:01 AM EDT 8:21 PM EDT
Astronomical Twilight 5:30 AM EDT 8:52 PM EDT
Moon 5:23 AM EDT (3/28) 5:21 PM EDT (3/28)
Length of Visible Light 13h 19m
Length of Day
12h 27m
Waning Crescent, 6% of the Moon is Illuminated
Mar 28
Waning Crescent
Mar 30
New
Apr 7
First Quarter
Apr 15
Full
Apr 22
Last Quarter

Hourly Weather History & Observations

Time (EDT) Temp. Windchill Dew Point Humidity Pressure Visibility Wind Dir Wind Speed Gust Speed Precip Events Conditions
12:15 AM 42.8 °F 38.0 °F 33.8 °F 70% 30.36 in 10.0 mi South 8.1 mph - N/A   Mostly Cloudy
12:35 AM 42.8 °F 38.0 °F 33.8 °F 70% 30.34 in 10.0 mi South 8.1 mph - N/A   Mostly Cloudy
12:55 AM 42.8 °F 38.0 °F 33.8 °F 70% 30.33 in 10.0 mi South 8.1 mph - N/A   Partly Cloudy
1:15 AM 42.8 °F 39.3 °F 35.6 °F 76% 30.33 in 10.0 mi South 5.8 mph - N/A   Clear
1:35 AM 42.8 °F 39.3 °F 35.6 °F 76% 30.32 in 10.0 mi South 5.8 mph - N/A   Clear
1:55 AM 42.8 °F 38.6 °F 35.6 °F 76% 30.31 in 10.0 mi South 6.9 mph - N/A   Clear
2:15 AM 42.8 °F 38.6 °F 35.6 °F 76% 30.30 in 10.0 mi South 6.9 mph - N/A   Clear
2:35 AM 42.8 °F 40.1 °F 35.6 °F 76% 30.29 in 10.0 mi South 4.6 mph - N/A   Clear
2:55 AM 42.8 °F 39.3 °F 35.6 °F 76% 30.30 in 10.0 mi South 5.8 mph - N/A   Clear
3:15 AM 41.0 °F 38.0 °F 35.6 °F 81% 30.29 in 10.0 mi South 4.6 mph - N/A   Clear
3:35 AM 42.8 °F 38.6 °F 37.4 °F 81% 30.28 in 10.0 mi South 6.9 mph - N/A   Scattered Clouds
3:55 AM 42.8 °F 38.6 °F 37.4 °F 81% 30.29 in 10.0 mi SSW 6.9 mph - N/A   Scattered Clouds
4:15 AM 44.6 °F 39.7 °F 39.2 °F 81% 30.28 in 10.0 mi South 9.2 mph - N/A   Scattered Clouds
4:35 AM 44.6 °F 39.7 °F 39.2 °F 81% 30.28 in 10.0 mi South 9.2 mph - N/A   Scattered Clouds
4:55 AM 46.4 °F 42.4 °F 39.2 °F 76% 30.27 in 10.0 mi South 8.1 mph - N/A   Scattered Clouds
5:15 AM 46.4 °F 42.4 °F 39.2 °F 76% 30.26 in 10.0 mi South 8.1 mph - N/A   Partly Cloudy
5:35 AM 46.4 °F 41.9 °F 39.2 °F 76% 30.26 in 10.0 mi South 9.2 mph - N/A   Clear
5:55 AM 46.4 °F 41.9 °F 41.0 °F 81% 30.26 in 10.0 mi South 9.2 mph - N/A   Clear
6:15 AM 46.4 °F 41.9 °F 41.0 °F 81% 30.26 in 10.0 mi South 9.2 mph - N/A   Clear
6:35 AM 46.4 °F 41.5 °F 41.0 °F 81% 30.26 in 10.0 mi South 10.4 mph - N/A   Clear
6:55 AM 46.4 °F 42.4 °F 41.0 °F 81% 30.26 in 10.0 mi SSW 8.1 mph - N/A   Clear
7:15 AM 46.4 °F 42.4 °F 42.8 °F 87% 30.26 in 10.0 mi South 8.1 mph - N/A   Clear
7:35 AM 48.2 °F - 42.8 °F 82% 30.26 in 10.0 mi South 8.1 mph - N/A   Clear
7:55 AM 50.0 °F - 44.6 °F 82% 30.26 in 10.0 mi SSW 9.2 mph - N/A   Clear
8:15 AM 51.8 °F - 44.6 °F 76% 30.26 in 10.0 mi South 8.1 mph - N/A   Clear
8:35 AM 53.6 °F - 44.6 °F 72% 30.26 in 10.0 mi South 9.2 mph - N/A   Clear
8:55 AM 55.4 °F - 46.4 °F 72% 30.26 in 10.0 mi South 11.5 mph - N/A   Clear
9:15 AM 57.2 °F - 46.4 °F 67% 30.26 in 10.0 mi South 9.2 mph - N/A   Clear
9:35 AM 60.8 °F - 46.4 °F 59% 30.26 in 10.0 mi SSW 8.1 mph 16.1 mph N/A   Clear
9:55 AM 62.6 °F - 48.2 °F 59% 30.25 in 10.0 mi SSW 13.8 mph 20.7 mph N/A   Clear
10:15 AM 62.6 °F - 48.2 °F 59% 30.25 in 10.0 mi SSW 9.2 mph 21.9 mph N/A   Clear
10:35 AM 64.4 °F - 48.2 °F 56% 30.25 in 10.0 mi SSW 17.3 mph 24.2 mph N/A   Clear
10:55 AM 66.2 °F - 48.2 °F 52% 30.24 in 10.0 mi SSW 21.9 mph 29.9 mph N/A   Clear
11:15 AM 66.2 °F - 48.2 °F 52% 30.25 in 10.0 mi SSW 15.0 mph 25.3 mph N/A   Clear
11:35 AM 66.2 °F - 46.4 °F 49% 30.24 in 10.0 mi SSW 19.6 mph 27.6 mph N/A   Scattered Clouds
11:55 AM 68.0 °F - 48.2 °F 49% 30.23 in 10.0 mi SSW 13.8 mph 27.6 mph N/A   Scattered Clouds
12:15 PM 69.8 °F - 48.2 °F 46% 30.21 in 10.0 mi SSW 15.0 mph 21.9 mph N/A   Mostly Cloudy
12:35 PM 71.6 °F - 48.2 °F 43% 30.20 in 10.0 mi SW 19.6 mph 29.9 mph N/A   Scattered Clouds
12:55 PM 71.6 °F - 48.2 °F 43% 30.20 in 10.0 mi SSW 18.4 mph 33.4 mph N/A   Mostly Cloudy
1:15 PM 71.6 °F - 48.2 °F 43% 30.18 in 10.0 mi SW 12.7 mph 23.0 mph N/A   Mostly Cloudy
1:35 PM 71.6 °F - 48.2 °F 43% 30.18 in 10.0 mi SW 17.3 mph 26.5 mph N/A   Scattered Clouds
1:55 PM 71.6 °F - 48.2 °F 43% 30.17 in 10.0 mi SW 16.1 mph 26.5 mph N/A   Mostly Cloudy
2:15 PM 71.6 °F - 50.0 °F 46% 30.16 in 10.0 mi SSW 17.3 mph 24.2 mph N/A   Overcast
2:35 PM 71.6 °F - 50.0 °F 46% 30.16 in 10.0 mi SSW 18.4 mph 26.5 mph N/A   Mostly Cloudy
2:55 PM 71.6 °F - 50.0 °F 46% 30.15 in 10.0 mi SW 17.3 mph 25.3 mph N/A   Overcast
3:15 PM 71.6 °F - 48.2 °F 43% 30.15 in 10.0 mi SSW 11.5 mph - N/A   Overcast
3:35 PM 71.6 °F - 50.0 °F 46% 30.14 in 10.0 mi SSW 13.8 mph 18.4 mph N/A   Mostly Cloudy
3:55 PM 71.6 °F - 50.0 °F 46% 30.13 in 10.0 mi South 13.8 mph 18.4 mph N/A   Mostly Cloudy
4:15 PM 71.6 °F - 50.0 °F 46% 30.12 in 10.0 mi SSW 10.4 mph 18.4 mph N/A   Mostly Cloudy
4:35 PM 71.6 °F - 50.0 °F 46% 30.13 in 10.0 mi SSW 13.8 mph 19.6 mph N/A   Mostly Cloudy
4:55 PM 71.6 °F - 50.0 °F 46% 30.12 in 10.0 mi SSW 12.7 mph 18.4 mph N/A   Overcast
5:15 PM 71.6 °F - 51.8 °F 50% 30.12 in 10.0 mi South 12.7 mph 18.4 mph N/A   Mostly Cloudy
5:35 PM 69.8 °F - 53.6 °F 56% 30.13 in 10.0 mi South 15.0 mph 19.6 mph N/A   Overcast
5:55 PM 69.8 °F - 53.6 °F 56% 30.14 in 10.0 mi South 15.0 mph 25.3 mph N/A   Overcast
6:15 PM 68.0 °F - 53.6 °F 60% 30.14 in 10.0 mi South 15.0 mph 21.9 mph N/A   Overcast
6:35 PM 68.0 °F - 53.6 °F 60% 30.15 in 10.0 mi South 9.2 mph 21.9 mph N/A   Overcast
6:55 PM 66.2 °F - 53.6 °F 64% 30.16 in 10.0 mi SW 10.4 mph 16.1 mph N/A   Overcast
7:15 PM 64.4 °F - 55.4 °F 73% 30.18 in 10.0 mi WSW 10.4 mph 16.1 mph N/A   Overcast
7:35 PM 60.8 °F - 55.4 °F 82% 30.18 in 3.0 mi WSW 9.2 mph - N/A   Overcast
7:55 PM 60.8 °F - 57.2 °F 88% 30.19 in 6.0 mi SW 10.4 mph 16.1 mph N/A   Overcast
8:15 PM 60.8 °F - 57.2 °F 88% 30.19 in 6.0 mi SSW 9.2 mph - N/A   Overcast
8:35 PM 60.8 °F - 57.2 °F 88% 30.19 in 10.0 mi SSW 6.9 mph - N/A   Mostly Cloudy
8:55 PM 60.8 °F - 57.2 °F 88% 30.19 in 10.0 mi South 5.8 mph - N/A   Mostly Cloudy
9:15 PM 60.8 °F - 57.2 °F 88% 30.20 in 10.0 mi South 5.8 mph - N/A   Overcast
9:35 PM 60.8 °F - 57.2 °F 88% 30.20 in 4.0 mi South 6.9 mph - N/A   Overcast
9:55 PM 60.8 °F - 57.2 °F 88% 30.20 in 4.0 mi South 6.9 mph - N/A   Overcast
10:15 PM 60.8 °F - 57.2 °F 88% 30.20 in 5.0 mi South 4.6 mph - N/A   Overcast
10:35 PM 60.8 °F - 57.2 °F 88% 30.19 in 10.0 mi South 5.8 mph - N/A   Overcast
10:55 PM 60.8 °F - 57.2 °F 88% 30.19 in 10.0 mi South 6.9 mph - N/A   Overcast
11:15 PM 60.8 °F - 57.2 °F 88% 30.19 in 10.0 mi South 6.9 mph - N/A   Overcast
11:35 PM 60.8 °F - 57.2 °F 88% 30.19 in 10.0 mi South 8.1 mph - N/A   Overcast
11:55 PM 60.8 °F - 57.2 °F 88% 30.19 in 10.0 mi South 8.1 mph - N/A   Overcast